This demonstration page uses our WeatherBlox Daily Observations layout. Learn more.

Left ArrowRight Arrow

39.92423, -83.80882

Hourly Observations for November 24, 2018

Temp ( °F °C ) Dew Point ( °F °C ) Humidity (%) Winds ( mph kmh ) Pressure ( in mb ) Visibility ( mi km ) Precip ( " mm )
12:56 am 00:56 Cloudy with Rain 43 6.1 41 5 93 93 SSE 13 20 29.87 1011 10 16.0934 N/A
1:56 am 01:56 Cloudy with Light Rain 43 6.1 42 5.6 97 97 SE 15 24 29.83 1010 10 16.0934 N/A
2:13 am 02:13 Cloudy with Light Rain 43 6 43 6 100 100 SSE 13 20 29.83 1010 9 14.48406 0.01 0.254
2:20 am 02:20 Cloudy with Light Rain 43 6 43 6 100 100 SSE 13 20 29.83 1010 10 16.0934 0.01 0.254
2:56 am 02:56 Cloudy with Light Rain 42 5.6 42 5.6 100 100 SE 16 26 29.79 1009 10 16.0934 0.02 0.508
3:56 am 03:56 Cloudy with Light Rain 42 5.6 42 5.6 100 100 SE 17 28 29.76 1008 10 16.0934 0.02 0.508
4:56 am 04:56 Cloudy with Light Rain 43 6.1 43 6.1 100 100 SE 17 28 29.72 1007 9 14.48406 0.03 0.762
5:56 am 05:56 Cloudy with Light Rain 43 6.1 43 6.1 100 100 SSE 14 22 29.71 1006 8 12.87472 N/A
6:56 am 06:56 Cloudy with Light Rain 44 6.7 44 6.7 100 100 S 15 24 29.7 1006 7 11.26538 0.03 0.762
7:39 am 07:39 Cloudy with Light Rain 45 7 45 7 100 100 S 9 15 29.68 1005 3 4.82802 0.01 0.254
7:56 am 07:56 Cloudy with Light Rain 45 7.2 45 7.2 100 100 S 9 15 29.68 1005 2 3.21868 0.02 0.508
8:17 am 08:17 Cloudy with Light Rain 45 7 45 7 100 100 S 10 17 29.68 1005 1.75 2.816345 0.01 0.254
8:56 am 08:56 Cloudy with Light Rain 46 7.8 46 7.8 100 100 S 12 19 29.68 1005 2 3.21868 0.03 0.762
9:05 am 09:05 Cloudy with Light Rain 46 8 46 8 100 100 S 12 19 29.65 1004 5 8.0467 N/A
9:56 am 09:56 Cloudy with Light Rain 47 8.3 46 7.8 97 97 S 12 19 29.68 1005 10 16.0934 0.02 0.508
10:48 am 10:48 Cloudy with Light Rain 46 8 46 8 100 100 SSW 13 20 29.65 1004 2.5 4.02335 0.03 0.762
10:56 am 10:56 Cloudy with Light Rain 47 8.3 47 8.3 100 100 SSW 13 20 29.67 1005 3 4.82802 0.03 0.762
11:24 am 11:24 Cloudy with Light Rain 46 8 46 8 100 100 SSW 13 20 29.65 1004 2.5 4.02335 0.02 0.508
11:32 am 11:32 Cloudy with Light Rain 46 8 46 8 100 100 SSW 12 19 29.65 1004 2 3.21868 0.02 0.508
11:56 am 11:56 Cloudy with Light Rain 47 8.3 47 8.3 100 100 SSW 14 22 29.66 1004 2 3.21868 0.03 0.762
12:14 pm 12:14 Cloudy with Light Rain 46 8 46 8 100 100 SW 14 22 29.65 1004 4 6.43736 0.01 0.254
12:39 pm 12:39 Cloudy 48 9 48 9 100 100 SW 12 19 29.62 1003 10 16.0934 0.02 0.508
12:56 pm 12:56 Cloudy 48 8.9 47 8.3 96 96 SW 10 17 29.65 1004 10 16.0934 0.03 0.762
1:39 pm 13:39 Cloudy 48 9 48 9 100 100 SW 15 24 29.62 1003 10 16.0934 0.02 0.508
1:56 pm 13:56 Cloudy 50 10 48 8.9 93 93 SW 12 19 29.65 1004 10 16.0934 0.02 0.508
2:34 pm 14:34 Cloudy 52 11 48 9 88 88 SW 14 22 29.62 1003 10 16.0934 0.02 0.508
2:56 pm 14:56 Mostly Cloudy 52 11.1 48 8.9 86 86 SW 14 22 29.64 1004 10 16.0934 0.03 0.762
3:56 pm 15:56 Mostly Cloudy 52 11.1 47 8.3 83 83 SW 15 24 29.66 1005 10 16.0934 0.05 1.27
4:56 pm 16:56 Cloudy 51 10.6 46 7.8 83 83 SW 10 17 29.68 1005 10 16.0934 0.05 1.27
5:20 pm 17:20 Partly Cloudy 48 9 45 7 87 87 SW 13 20 29.68 1005 10 16.0934 0.01 0.254
5:56 pm 17:56 Mostly Cloudy 48 8.9 45 7.2 89 89 WSW 8 13 29.71 1006 10 16.0934 0.04 1.016
6:56 pm 18:56 Mostly Clear 47 8.3 44 6.7 90 90 SW 8 13 29.72 1007 10 16.0934 0.03 0.762
7:56 pm 19:56 Clear 46 7.8 44 6.7 93 93 SSW 8 13 29.74 1007 10 16.0934 0.03 0.762
8:56 pm 20:56 Clear 45 7.2 43 6.1 93 93 SW 9 15 29.76 1008 10 16.0934 0.02 0.508
9:56 pm 21:56 Clear 45 7.2 43 6.1 93 93 SW 9 15 29.78 1008 10 16.0934 N/A
10:56 pm 22:56 Clear 44 6.7 43 6.1 96 96 SW 8 13 29.79 1009 9 14.48406 N/A
11:56 pm 23:56 Clear with Mist and Fog 43 6.1 43 6.1 100 100 SSW 8 13 29.81 1010 6 9.65604 N/A

Powered by AerisWeather